GW2646 Weather Reports


Display with metric or nautical units.
time (UTC)temp
F
wind
direction
speed
MPH
gust
MPH
rain 1hr
in
rain 24hr
in
rain mn
in
humidity
%
barometer
mb
20260904062546 53 0 0.0 0.0 0.00 0.00 0.00 91 1010.8
20260904062046 53 0 0.0 0.0 0.00 0.00 0.00 91 1010.8
20260904061600 53 0 0.0 0.0 0.00 0.00 0.00 91 1010.7
20260904061047 53 0 0.0 0.0 0.00 0.00 0.00 91 1010.7
20260904060547 53 0 0.0 2.0 0.00 0.00 0.00 91 1010.7
20260904055547 53 0 0.0 6.0 0.00 0.00 0.00 91 1010.7
20260904055048 53 0 0.0 1.0 0.00 0.00 0.00 91 1010.7
20260904054600 54 0 0.0 1.0 0.00 0.00 0.00 91 1010.6
20260904054046 54 0 0.0 1.0 0.00 0.00 0.00 90 1010.7
20260904053546 54 0 0.0 1.0 0.00 0.00 0.00 90 1010.6
20260904053056 54 0 0.0 2.0 0.00 0.00 0.00 90 1010.6
20260904052547 54 0 0.0 2.0 0.00 0.00 0.00 90 1010.5
20260904052047 55 0 0.0 2.0 0.00 0.00 0.00 89 1010.5
20260904051604 55 0 0.0 0.0 0.00 0.00 0.00 89 1010.6
20260904051047 55 0 0.0 0.0 0.00 0.00 0.00 89 1010.6
20260904050546 55 0 0.0 0.0 0.00 0.00 0.00 89 1010.6
20260904050058 55 0 0.0 0.0 0.00 0.00 0.00 89 1010.6
20260904045547 55 0 0.0 0.0 0.00 0.00 0.00 89 1010.7
20260904045046 55 0 0.0 0.0 0.00 0.00 0.00 89 1010.6
20260904044609 55 0 0.0 0.0 0.00 0.00 0.00 89 1010.6
20260904044048 55 0 0.0 0.0 0.00 0.00 0.00 89 1010.6
20260904043547 55 0 0.0 0.0 0.00 0.00 0.00 88 1010.6
20260904043058 55 0 0.0 0.0 0.00 0.00 0.00 88 1010.6
20260904042547 55 0 0.0 0.0 0.00 0.00 0.00 88 1010.7
20260904042046 55 0 0.0 0.0 0.00 0.00 0.00 88 1010.7
20260904041601 55 0 0.0 0.0 0.00 0.00 0.00 88 1010.8
20260904041047 55 0 0.0 0.0 0.00 0.00 0.00 88 1010.6
20260904040547 55 0 0.0 0.0 0.00 0.00 0.00 87 1010.6
20260904035546 55 0 0.0 0.0 0.00 0.00 0.00 86 1010.5
20260904035046 55 0 0.0 0.0 0.00 0.00 0.00 86 1010.5
20260904034601 56 0 0.0 0.0 0.00 0.00 0.00 86 1010.4
20260904034047 56 0 0.0 0.0 0.00 0.00 0.00 85 1010.4
20260904033549 56 0 0.0 0.0 0.00 0.00 0.00 85 1010.5
20260904033100 56 0 0.0 0.0 0.00 0.00 0.00 84 1010.4
20260904032546 57 0 0.0 0.0 0.00 0.00 0.00 83 1010.3
20260904032048 57 0 0.0 0.0 0.00 0.00 0.00 83 1010.2
20260904031603 57 0 0.0 0.0 0.00 0.00 0.00 82 1010.1
20260904031044 58 0 0.0 0.0 0.00 0.00 0.00 82 1010.1
20260904030547 58 0 0.0 0.0 0.00 0.00 0.00 82 1010.0
20260904030111 58 0 0.0 0.0 0.00 0.00 0.00 79 1009.9
20260904025547 59 0 0.0 0.0 0.00 0.00 0.00 77 1010.0
20260904025047 60 0 0.0 0.0 0.00 0.00 0.00 76 1009.9
20260904024608 61 0 0.0 0.0 0.00 0.00 0.00 73 1009.8
20260904024047 62 0 0.0 0.0 0.00 0.00 0.00 72 1009.8
20260904023546 63 0 0.0 0.0 0.00 0.00 0.00 71 1009.7
20260904023104 63 0 0.0 0.0 0.00 0.00 0.00 70 1009.6
20260904022546 63 0 0.0 0.0 0.00 0.00 0.00 67 1009.6
20260904022047 63 0 0.0 1.0 0.00 0.00 0.00 69 1009.6
20260904021602 64 0 0.0 1.0 0.00 0.00 0.00 68 1009.5
20260904021046 64 0 0.0 1.0 0.00 0.00 0.00 66 1009.6
20260904020546 64 0 0.0 0.0 0.00 0.00 0.00 66 1009.5
20260904020104 64 0 0.0 1.0 0.00 0.00 0.00 65 1009.5
20260904015545 65 0 0.0 1.0 0.00 0.00 0.00 65 1009.6
20260904015047 65 0 0.0 2.0 0.00 0.00 0.00 65 1009.5
20260904014602 65 0 0.0 2.0 0.00 0.00 0.00 64 1009.5
20260904014047 65 0 0.0 2.0 0.00 0.00 0.00 63 1009.6
20260904013546 65 0 0.0 2.0 0.00 0.00 0.00 63 1009.5
20260904013057 66 0 0.0 2.0 0.00 0.00 0.00 62 1009.6
20260904012545 66 0 0.0 5.0 0.00 0.00 0.00 61 1009.5
20260904012046 67 0 0.0 5.0 0.00 0.00 0.00 62 1009.5
20260904011613 67 0 0.0 6.0 0.00 0.00 0.00 59 1009.5
20260904011046 67 170 2.0 6.0 0.00 0.00 0.00 58 1009.5
20260904010552 67 0 0.0 6.0 0.00 0.00 0.00 59 1009.4
20260904010113 68 176 1.0 6.0 0.00 0.00 0.00 59 1009.5
20260904005546 68 0 1.0 5.0 0.00 0.02 0.00 59 1009.4
20260904005046 68 0 0.0 3.0 0.00 0.02 0.00 58 1009.4
20260904004605 68 0 0.0 4.0 0.00 0.02 0.00 57 1009.4
20260904004047 68 0 0.0 5.0 0.00 0.02 0.00 56 1009.5
20260904003546 69 165 0.0 6.0 0.00 0.02 0.00 56 1009.5
20260904003059 68 0 2.0 6.0 0.00 0.02 0.00 56 1009.5
20260904002550 68 187 1.0 6.0 0.00 0.02 0.00 56 1009.5
20260904002048 67 202 3.0 5.0 0.00 0.02 0.00 58 1009.6
20260904001600 67 167 1.0 5.0 0.00 0.02 0.00 59 1009.6
20260904001046 67 196 1.0 6.0 0.00 0.02 0.00 59 1009.6
20260904000546 66 211 3.0 6.0 0.00 0.02 0.00 59 1009.7
20260904000103 67 177 0.0 3.0 0.00 0.02 0.00 59 1009.6
20260903235547 66 0 0.0 1.0 0.00 0.10 0.00 61 1009.6
20260903235046 66 0 0.0 4.0 0.00 0.10 0.00 62 1009.7
20260903234605 66 0 0.0 4.0 0.00 0.10 0.00 62 1009.8
20260903234047 66 0 0.0 2.0 0.00 0.10 0.00 62 1009.8
20260903233547 65 0 0.0 3.0 0.00 0.10 0.00 62 1009.8
20260903233104 65 0 0.0 3.0 0.00 0.10 0.00 65 1009.7
20260903232547 65 176 0.0 2.0 0.00 0.10 0.00 64 1009.6
20260903232046 65 0 0.0 3.0 0.00 0.10 0.00 64 1009.8
20260903231603 65 177 0.0 3.0 0.00 0.10 0.00 65 1009.7
20260903231046 65 0 0.0 2.0 0.00 0.10 0.00 66 1009.7
20260903230547 65 0 0.0 3.0 0.00 0.10 0.00 65 1009.8
20260903230100 64 0 0.0 3.0 0.00 0.10 0.00 67 1009.8
20260903225547 64 0 0.0 3.0 0.00 0.10 0.00 66 1009.8
20260903225046 64 178 0.0 2.0 0.00 0.10 0.00 67 1009.9
20260903224602 64 0 0.0 2.0 0.00 0.10 0.00 67 1009.8
20260903224046 64 0 0.0 3.0 0.00 0.10 0.00 67 1009.8
20260903223547 64 0 0.0 3.0 0.00 0.10 0.00 69 1009.9
20260903223101 64 0 0.0 3.0 0.00 0.10 0.00 65 1009.8
20260903222547 64 0 0.0 4.0 0.00 0.10 0.00 67 1009.8
20260903222051 64 0 0.0 4.0 0.00 0.10 0.00 68 1009.8
20260903221603 64 360 0.0 4.0 0.00 0.10 0.00 66 1009.8
20260903221046 64 0 0.0 4.0 0.00 0.10 0.00 67 1009.8
20260903220546 64 0 0.0 4.0 0.00 0.10 0.00 67 1009.8
20260903220117 64 0 0.0 3.0 0.00 0.10 0.00 67 1009.8
20260903215547 64 0 0.0 4.0 0.00 0.10 0.00 66 1009.8
20260903215046 64 24 0.0 4.0 0.00 0.10 0.00 68 1009.8
20260903214605 64 0 1.0 4.0 0.00 0.10 0.00 68 1009.8
20260903214046 65 323 0.0 3.0 0.00 0.10 0.00 68 1009.9
20260903213546 65 0 0.0 3.0 0.00 0.10 0.00 68 1009.9
20260903213105 63 323 0.0 4.0 0.00 0.10 0.00 70 1009.9
20260903212548 62 0 1.0 4.0 0.00 0.10 0.00 71 1009.9
20260903212047 62 323 0.0 3.0 0.00 0.10 0.00 71 1009.9
20260903211603 63 322 0.0 3.0 0.00 0.10 0.00 70 1010.0
20260903211047 63 0 0.0 3.0 0.00 0.10 0.00 69 1010.0
20260903210545 62 248 0.0 3.0 0.00 0.10 0.00 69 1010.0
20260903210107 62 0 0.0 3.0 0.00 0.10 0.00 69 1010.0
20260903205546 62 0 0.0 2.0 0.00 0.10 0.00 70 1010.0
20260903205046 61 0 1.0 2.0 0.00 0.10 0.00 70 1009.9
20260903204602 62 169 0.0 2.0 0.00 0.10 0.00 69 1010.0
20260903204046 62 0 0.0 5.0 0.00 0.10 0.00 70 1009.9
20260903203544 61 0 1.0 5.0 0.00 0.10 0.00 70 1009.9
20260903203131 62 0 0.0 4.0 0.00 0.10 0.00 71 1009.9
20260903202546 61 0 0.0 4.0 0.00 0.10 0.00 70 1009.8
20260903202047 61 0 0.0 5.0 0.00 0.10 0.00 70 1009.9
20260903201600 61 0 2.0 5.0 0.00 0.10 0.00 71 1009.9
20260903201046 61 202 1.0 4.0 0.00 0.10 0.00 71 1009.9
20260903200544 60 0 0.0 5.0 0.00 0.10 0.00 72 1010.0
20260903200100 60 0 1.0 5.0 0.00 0.10 0.00 73 1010.0
20260903195548 60 0 2.0 5.0 0.00 0.10 0.00 73 1009.9
20260903195046 60 196 2.0 5.0 0.00 0.10 0.00 73 1010.0
20260903194602 60 178 2.0 5.0 0.00 0.10 0.00 72 1009.9
20260903194046 61 229 1.0 6.0 0.00 0.10 0.00 73 1009.8
20260903193549 61 229 2.0 6.0 0.00 0.10 0.00 72 1009.8
20260903193101 61 208 2.0 5.0 0.00 0.10 0.00 71 1009.7
20260903192549 61 207 0.0 4.0 0.00 0.10 0.00 70 1009.7
20260903192046 61 0 1.0 6.0 0.00 0.10 0.00 70 1009.6
20260903191604 61 207 2.0 6.0 0.00 0.10 0.00 69 1009.5
20260903191046 62 144 0.0 3.0 0.00 0.10 0.00 69 1009.5
20260903190548 62 144 0.0 3.0 0.00 0.10 0.00 68 1009.5
20260903190107 62 144 0.0 4.0 0.00 0.10 0.00 70 1009.4
20260903185550 61 0 0.0 4.0 0.00 0.10 0.00 72 1009.5
20260903185046 61 0 0.0 8.0 0.00 0.10 0.00 70 1009.5
20260903184602 61 0 4.0 10.0 0.00 0.10 0.00 69 1009.5
20260903184047 62 184 4.0 10.0 0.00 0.10 0.00 69 1009.5
20260903183546 62 0 2.0 8.0 0.00 0.10 0.00 69 1009.4
20260903183106 62 0 1.0 9.0 0.00 0.10 0.00 69 1009.3
20260903182547 62 0 0.0 9.0 0.00 0.10 0.00 68 1009.3
20260903182047 62 172 3.0 9.0 0.00 0.10 0.00 67 1009.3
20260903181556 62 188 0.0 5.0 0.00 0.10 0.00 71 1009.4
20260903181049 61 0 1.0 5.0 0.00 0.10 0.00 71 1009.3
20260903180545 61 171 0.0 6.0 0.00 0.10 0.00 74 1009.3
20260903180107 61 0 0.0 6.0 0.00 0.10 0.00 72 1009.3
20260903175550 61 0 0.0 7.0 0.00 0.10 0.00 73 1009.3
20260903175046 61 171 0.0 7.0 0.00 0.10 0.00 73 1009.2
20260903174601 60 0 0.0 4.0 0.00 0.10 0.00 74 1009.3
20260903174048 60 182 0.0 4.0 0.00 0.10 0.00 78 1009.2
20260903173544 59 0 0.0 1.0 0.00 0.10 0.00 78 1009.3
20260903173102 58 0 0.0 2.0 0.00 0.10 0.00 81 1009.2
20260903172546 58 0 0.0 5.0 0.00 0.10 0.00 81 1009.3
20260903172044 58 0 0.0 9.0 0.00 0.10 0.00 79 1009.3
20260903171616 58 0 1.0 9.0 0.00 0.10 0.00 79 1009.3
20260903171044 59 0 1.0 10.0 0.00 0.10 0.00 78 1009.2
20260903170547 59 196 3.0 12.0 0.00 0.10 0.00 77 1009.2
20260903170104 59 141 3.0 12.0 0.00 0.10 0.00 76 1009.1
20260903165545 59 156 2.0 9.0 0.00 0.10 0.00 75 1009.1
20260903165047 59 165 1.0 10.0 0.00 0.10 0.00 76 1009.0
20260903164642 59 197 3.0 10.0 0.00 0.10 0.00 72 1009.0
20260903164047 59 0 4.0 10.0 0.00 0.10 0.00 74 1009.0
20260903163546 59 153 2.0 10.0 0.00 0.10 0.00 75 1009.0
20260903163103 59 167 1.0 9.0 0.00 0.10 0.00 76 1009.1
20260903162545 59 150 2.0 9.0 0.00 0.10 0.00 77 1009.1
20260903162048 59 188 4.0 10.0 0.00 0.10 0.00 76 1009.1
20260903161602 59 0 2.0 10.0 0.00 0.10 0.00 76 1009.0
20260903161047 59 184 3.0 10.0 0.00 0.10 0.00 75 1009.1
20260903160547 59 0 4.0 10.0 0.00 0.10 0.00 76 1009.1
20260903160109 59 156 4.0 12.0 0.00 0.10 0.00 76 1009.1
20260903155546 59 144 4.0 14.0 0.00 0.10 0.00 76 1009.0
20260903155048 58 175 5.0 14.0 0.00 0.10 0.00 76 1009.0
20260903154608 58 172 3.0 9.0 0.00 0.10 0.00 78 1009.0
20260903154048 58 160 3.0 9.0 0.00 0.10 0.00 78 1008.9
20260903153545 58 146 1.0 9.0 0.00 0.10 0.00 79 1009.0
20260903153102 57 154 3.0 8.0 0.00 0.10 0.00 79 1009.0
20260903152545 57 168 3.0 8.0 0.00 0.10 0.00 80 1009.0
20260903152050 57 149 1.0 6.0 0.00 0.10 0.00 82 1008.9
20260903151557 57 0 2.0 8.0 0.00 0.10 0.00 81 1008.9
20260903151046 57 0 0.0 8.0 0.00 0.10 0.00 81 1008.9
20260903150547 56 182 2.0 8.0 0.00 0.10 0.00 81 1008.9
20260903150100 56 0 2.0 8.0 0.00 0.10 0.00 81 1008.9
20260903145545 56 171 3.0 10.0 0.00 0.10 0.00 81 1008.8
20260903145047 56 128 3.0 10.0 0.00 0.10 0.00 81 1008.9
20260903144612 56 171 2.0 10.0 0.00 0.10 0.00 82 1008.9
20260903144047 56 194 4.0 10.0 0.00 0.10 0.00 82 1008.8
20260903143547 56 151 2.0 7.0 0.00 0.10 0.00 82 1008.8
20260903143101 56 145 1.0 7.0 0.00 0.10 0.00 82 1008.8
20260903142545 56 149 2.0 7.0 0.00 0.10 0.00 82 1008.7
20260903142047 56 157 2.0 8.0 0.00 0.10 0.00 83 1008.8
20260903141559 55 0 1.0 8.0 0.00 0.10 0.00 83 1008.6
20260903141046 55 157 2.0 7.0 0.00 0.10 0.00 85 1008.6
20260903140547 55 0 2.0 7.0 0.00 0.10 0.00 86 1008.6
20260903135546 54 0 0.0 4.0 0.00 0.10 0.00 88 1008.4
20260903135044 54 0 0.0 3.0 0.00 0.10 0.00 88 1008.3
20260903134613 54 0 0.0 3.0 0.00 0.10 0.00 88 1008.3
20260903134046 54 0 0.0 1.0 0.00 0.10 0.00 87 1008.2
20260903133551 55 0 0.0 1.0 0.00 0.10 0.00 87 1008.3
20260903133105 55 0 0.0 1.0 0.00 0.10 0.00 86 1008.3
20260903132547 55 0 0.0 2.0 0.00 0.10 0.00 85 1008.3
20260903132050 56 0 0.0 4.0 0.00 0.10 0.00 84 1008.2
20260903131559 56 0 0.0 4.0 0.00 0.10 0.00 83 1008.3
20260903131046 56 144 2.0 4.0 0.00 0.10 0.00 82 1008.2
20260903130550 56 144 1.0 3.0 0.00 0.10 0.00 81 1008.2
20260903130059 56 0 0.0 3.0 0.00 0.10 0.00 80 1008.0
20260903125546 56 0 0.0 3.0 0.00 0.10 0.00 80 1008.0
20260903125049 56 144 0.0 7.0 0.00 0.10 0.00 80 1008.0
20260903124619 56 0 0.0 7.0 0.00 0.10 0.00 80 1007.9
20260903124046 56 0 0.0 5.0 0.00 0.10 0.00 80 1007.8
20260903123558 56 165 0.0 3.0 0.00 0.10 0.00 80 1007.9
20260903123100 56 0 0.0 5.0 0.00 0.10 0.00 80 1007.8
20260903122545 56 0 0.0 5.0 0.00 0.10 0.00 80 1007.8
20260903122047 56 0 0.0 4.0 0.00 0.10 0.00 80 1007.8
20260903121603 56 0 0.0 4.0 0.00 0.10 0.00 80 1007.8
20260903121046 56 165 0.0 3.0 0.00 0.10 0.00 81 1007.7
20260903120546 56 0 0.0 3.0 0.00 0.10 0.00 81 1007.7
20260903120104 56 0 0.0 4.0 0.00 0.10 0.00 82 1007.7
20260903115546 56 0 0.0 4.0 0.00 0.10 0.00 81 1007.7
20260903115046 56 0 0.0 3.0 0.00 0.10 0.00 82 1007.6
20260903114555 56 0 0.0 4.0 0.00 0.10 0.00 82 1007.6
20260903114046 56 0 0.0 4.0 0.00 0.10 0.00 81 1007.6
20260903113550 56 165 0.0 3.0 0.00 0.10 0.00 82 1007.6
20260903113136 56 0 0.0 4.0 0.00 0.10 0.00 80 1007.6
20260903112549 56 166 2.0 7.0 0.00 0.10 0.00 80 1007.7
20260903112044 56 165 1.0 8.0 0.00 0.10 0.00 81 1007.7
20260903111557 56 144 0.0 8.0 0.00 0.10 0.00 82 1007.6
20260903111047 56 0 0.0 3.0 0.00 0.10 0.00 82 1007.6
20260903110547 56 0 0.0 1.0 0.00 0.10 0.00 80 1007.6
20260903110108 56 0 0.0 1.0 0.00 0.10 0.00 81 1007.6
20260903105544 56 0 0.0 5.0 0.00 0.10 0.00 81 1007.6
20260903105047 56 0 0.0 5.0 0.00 0.10 0.00 80 1007.6
20260903104609 56 0 0.0 9.0 0.00 0.10 0.00 80 1007.5
20260903104045 56 144 0.0 9.0 0.00 0.10 0.00 80 1007.5
20260903103546 56 96 2.0 9.0 0.00 0.10 0.00 80 1007.5
20260903103102 56 0 1.0 10.0 0.00 0.10 0.00 81 1007.5
20260903102546 56 153 1.0 10.0 0.00 0.10 0.00 82 1007.5
20260903102046 56 171 1.0 8.0 0.00 0.10 0.00 81 1007.5
20260903101602 56 0 1.0 5.0 0.00 0.10 0.00 82 1007.5
20260903101046 56 163 0.0 5.0 0.00 0.10 0.00 81 1007.5
20260903100546 56 0 0.0 5.0 0.00 0.10 0.00 81 1007.5
20260903095546 56 0 0.0 8.0 0.00 0.10 0.00 82 1007.5
20260903095046 56 151 0.0 8.0 0.00 0.10 0.00 82 1007.6
20260903094559 56 0 0.0 3.0 0.00 0.10 0.00 83 1007.5
20260903094048 56 183 0.0 3.0 0.00 0.10 0.00 83 1007.5
20260903093548 56 184 0.0 3.0 0.00 0.10 0.00 84 1007.5
20260903093104 56 183 0.0 3.0 0.00 0.10 0.00 83 1007.5
20260903092547 55 0 0.0 3.0 0.00 0.10 0.00 84 1007.5
20260903092047 55 0 0.0 3.0 0.00 0.10 0.00 84 1007.4
20260903091601 55 184 0.0 3.0 0.00 0.10 0.00 84 1007.4
20260903091046 55 0 0.0 5.0 0.00 0.10 0.00 84 1007.4
20260903090546 56 0 0.0 5.0 0.00 0.10 0.00 84 1007.4
20260903090057 56 146 1.0 4.0 0.00 0.10 0.00 83 1007.4
20260903085545 56 0 1.0 7.0 0.00 0.10 0.00 83 1007.4
20260903085047 56 172 0.0 9.0 0.00 0.10 0.00 83 1007.4
20260903084609 56 167 2.0 11.0 0.00 0.10 0.00 83 1007.4
20260903084047 56 167 3.0 12.0 0.00 0.10 0.00 83 1007.3
20260903083547 56 163 3.0 12.0 0.00 0.10 0.00 83 1007.3
20260903083100 55 150 4.0 10.0 0.00 0.10 0.00 84 1007.2
20260903082546 55 142 1.0 9.0 0.00 0.10 0.00 85 1007.2
20260903082046 55 163 2.0 9.0 0.00 0.10 0.00 86 1007.2
20260903081557 55 150 1.0 7.0 0.00 0.10 0.00 86 1007.2
20260903081047 55 156 0.0 7.0 0.00 0.10 0.00 86 1007.1
20260903080546 55 157 3.0 10.0 0.00 0.10 0.00 85 1007.2
20260903075547 55 140 0.0 7.0 0.00 0.10 0.00 86 1007.2
20260903075046 55 171 2.0 8.0 0.00 0.10 0.00 86 1007.2
20260903074601 55 0 1.0 8.0 0.00 0.10 0.00 85 1007.3
20260903074047 55 171 2.0 8.0 0.00 0.10 0.00 86 1007.2
20260903073547 55 169 1.0 9.0 0.00 0.10 0.00 86 1007.2
20260903073059 55 0 2.0 9.0 0.00 0.10 0.00 86 1007.2
20260903072546 55 189 3.0 9.0 0.00 0.10 0.00 86 1007.2
20260903072046 55 0 2.0 6.0 0.00 0.10 0.00 87 1007.2
20260903071613 55 156 1.0 9.0 0.00 0.10 0.00 87 1007.2
20260903071047 55 161 1.0 10.0 0.00 0.10 0.00 87 1007.2
20260903070549 55 214 3.0 10.0 0.00 0.10 0.00 87 1007.2
20260903070100 55 150 2.0 8.0 0.00 0.10 0.00 87 1007.2
20260903065550 55 0 3.0 8.0 0.00 0.10 0.10 88 1007.1
20260903065046 54 133 0.0 3.0 0.00 0.10 0.10 89 1007.2
20260903064600 54 0 0.0 4.0 0.00 0.10 0.10 89 1007.1
20260903064046 55 0 0.0 7.0 0.00 0.10 0.10 89 1007.0
20260903063546 55 136 0.0 7.0 0.00 0.10 0.10 89 1007.0
20260903063055 55 136 1.0 11.0 0.00 0.10 0.10 88 1007.2